Temp
12 12 13 13 13 12 13 13 13 13 13 14 14 14 13 12 11 11 10 10 10 11 11 11 11 11 12 11 9 9 9 10 10 11 11 12 12 11 8 7 7 6 5 5 4 5 4
12 12 12 12 12 12 12 12 13 13 13 14 14 13 12 12 11 11 11 10 10 11 11 11 11 11 11 9 9 9 9 9 10 10 11 12 12 12 8 6 6 5 5 4 5 4 4
12 12 12 12 12 12 12 12 12 13 13 13 14 13 12 12 11 11 11 10 10 10 11 11 11 11 11 8 8 9 9 9 10 10 11 11 11 12 9 5 6 6 6 5 5 5 3
12 12 12 12 12 12 12 12 12 12 13 13 13 13 13 12 11 11 11 11 11 11 11 11 11 11 9 8 9 9 9 9 9 10 11 11 11 11 8 7 7 6 5 7 5 5 3
12 12 12 12 12 12 12 12 12 12 12 13 13 13 13 12 11 11 11 11 10 11 11 10 10 10 8 8 8 9 9 9 9 10 10 11 11 8 7 5 5 3 6 5 6 4 3
11 11 11 11 12 12 12 12 12 12 12 12 13 13 13 12 11 11 11 11 10 10 11 10 10 10 8 7 7 8 8 9 9 10 10 11 9 4 3 5 7 6 5 5 5 4 3
10 11 11 11 11 11 12 11 12 12 12 12 12 12 13 12 12 11 11 11 10 10 10 6 6 6 7 7 7 8 8 9 9 10 6 7 6 6 5 5 5 4 5 5 5 4 3
10 10 11 11 11 11 11 11 11 11 11 12 12 12 12 12 12 11 11 11 10 9 6 6 6 6 6 7 7 7 8 9 8 5 6 5 6 4 5 5 6 6 5 4 4 3 2
9 10 10 10 11 11 11 11 11 11 11 11 11 12 12 11 11 11 11 10 9 9 7 6 6 6 6 7 5 6 7 7 6 6 4 6 4 5 5 5 5 4 5 4 4 2 2
9 9 9 9 10 11 11 11 11 11 11 11 11 11 11 11 11 11 10 10 9 8 5 6 6 5 6 6 5 5 6 6 5 5 3 3 3 4 4 5 4 5 2 3 3 1 2
9 9 9 9 9 10 10 11 11 10 11 11 11 11 11 11 11 10 10 9 8 8 8 5 5 6 6 6 5 5 6 6 5 4 4 5 3 4 4 3 3 4 2 2 2 1 -0
9 9 9 9 9 9 10 10 10 10 10 10 10 10 10 10 10 10 10 9 8 8 7 7 5 5 6 5 4 5 6 6 4 3 2 2 2 2 1 0 1 1 2 0 -2 -2 -3
9 8 9 9 9 9 9 9 9 9 10 10 10 10 10 10 10 10 9 8 7 8 7 7 6 5 5 3 4 3 3 3 4 5 5 3 2 1 2 2 2 2 2 2 2 -0 2
9 8 8 8 9 8 8 9 8 8 9 9 9 9 9 9 9 9 9 7 10 8 7 4 5 5 5 3 4 3 3 3 3 3 1 2 4 1 1 1 2 2 2 2 3 2 0
9 9 8 8 8 8 8 8 8 7 7 8 9 9 9 9 9 9 8 6 8 7 6 5 4 6 5 4 3 3 3 3 3 2 1 -1 4 -0 -0 -0 1 1 1 1 -1 -4 -4
9 9 9 8 8 8 8 8 8 7 7 8 8 8 8 8 8 9 6 7 6 6 4 5 8 6 7 5 5 4 4 2 3 1 1 -1 0 -2 -0 0 -1 0 -0 1 -1 0 1
9 9 8 8 8 8 8 8 8 7 6 7 7 8 7 7 8 8 5 4 5 5 5 6 6 6 5 5 4 4 4 2 1 1 2 -1 -1 0 -0 -1 0 -1 -2 -3 -3 -3 -1
9 9 8 8 8 8 8 8 8 8 7 6 6 5 6 7 6 2 2 4 5 4 5 4 4 5 4 2 3 3 3 2 0 1 -0 -1 -6 -3 1 -4 -3 -2 -4 -5 -2 -2 -7
7 8 8 8 8 8 8 8 8 8 7 6 6 5 5 6 4 2 3 4 4 4 4 3 3 3 3 3 1 2 2 -1 -0 0 -1 -3 -4 -3 0 -4 -5 -5 -7 -8 -7 -8 -5
8 7 8 8 8 8 8 8 8 8 8 7 6 3 4 5 4 4 3 4 3 3 3 3 2 2 1 2 -2 -1 1 -2 -1 -0 -0 -1 -9 -1 3 1 -6 -6 -4 -4 -1 -4 -3
7 8 7 8 8 8 8 8 8 8 7 6 6 3 4 1 2 3 4 3 3 2 2 2 1 1 -0 -1 0 -0 -1 -1 -3 -2 -3 -5 -5 -8 -8 -9 -7 -4 -3 -4 -3 -1 -1
7 7 7 8 9 9 8 8 8 7 6 5 6 4 3 1 1 1 2 2 2 1 1 1 -0 -1 -3 -2 -1 -2 -4 -6 -3 -5 -8 -9 -6 -10 -9 -8 -7 -6 -6 -5 -3 -2 -2
7 7 8 8 8 8 8 6 7 7 6 4 4 6 6 -0 -0 0 1 1 1 2 0 1 -0 -2 -3 -1 -2 -2 -3 -4 -3 -4 -4 -5 -8 -8 -6 -11 -11 -6 -6 -4 -7 -10 -5
7 7 7 7 7 7 5 5 6 5 6 5 6 6 6 1 -0 1 1 2 1 1 0 -2 -0 -1 -3 -2 -3 -4 -5 -7 -7 -9 -7 -6 -5 -5 -8 -10 -6 -4 -16 -11 -7 -10 -11
6 6 7 7 7 6 5 5 5 4 5 5 6 6 6 0 0 0 1 0 -0 0 -2 -3 -4 -4 -3 -3 -3 -6 -8 -9 -13 -12 -10 -9 -6 -6 -7 -12 -6 -7 -11 -11 -9 -8 -20
6 6 6 6 6 5 5 4 4 5 4 4 5 5 6 2 -0 2 -0 -0 -1 -1 -5 -7 -6 -5 -4 -4 -3 -3 -3 -5 -8 -12 -12 -10 -10 -5 -8 -7 -6 -7 -13 -12 -13 -9 -16
5 5 5 4 4 4 4 4 3 4 5 4 4 5 5 4 1 2 1 0 0 -3 -9 -8 -8 -6 -5 -5 -3 -5 -5 -11 -6 -9 -11 -10 -10 -6 -5 -5 -7 -12 -12 -12 -8 -7 -14
5 5 5 6 4 5 4 3 4 3 3 3 3 4 4 4 1 1 2 1 -1 -1 -3 -8 -6 -9 -8 -5 -6 -7 -11 -11 -11 -13 -12 -10 -9 -10 -8 -7 -7 -11 -14 -8 -12 -15 -14
5 4 4 4 3 4 4 4 2 3 3 3 3 3 2 4 0 -0 0 -0 -0 0 -0 -4 -5 -6 -5 -9 -10 -10 -9 -12 -12 -6 -15 -8 -8 -8 -6 -7 -14 -12 -13 -13 -14 -13 -15
Height
1529 1529 1529 1530 1530 1530 1530 1530 1529 1528 1527 1526 1525 1524 1523 1522 1522 1522 1523 1523 1523 1522 1522 1521 1520 1519 1519 1520 1523 1522 1521 1521 1521 1521 1522 1522 1523 1525 1531 1534 1536 1539 1544 1545 1547 1547 1549
1528 1528 1529 1529 1530 1530 1530 1530 1529 1529 1528 1528 1527 1525 1525 1525 1525 1525 1525 1524 1524 1523 1522 1521 1521 1520 1520 1522 1524 1523 1522 1522 1522 1522 1523 1524 1524 1526 1530 1536 1537 1543 1544 1547 1548 1549 1551
1527 1528 1528 1528 1529 1531 1530 1530 1530 1530 1529 1528 1528 1527 1526 1526 1526 1526 1526 1525 1525 1524 1523 1522 1521 1521 1521 1525 1523 1523 1523 1523 1523 1523 1524 1525 1526 1527 1532 1538 1542 1544 1547 1548 1549 1550 1551
1526 1527 1528 1528 1528 1529 1530 1530 1530 1530 1530 1529 1528 1528 1527 1527 1527 1527 1527 1526 1525 1524 1523 1523 1522 1521 1523 1525 1525 1525 1524 1524 1524 1525 1525 1527 1528 1529 1534 1540 1543 1546 1548 1548 1549 1550 1553
1524 1525 1526 1528 1528 1529 1529 1530 1530 1530 1530 1529 1528 1528 1528 1527 1527 1527 1527 1526 1525 1524 1524 1523 1523 1522 1526 1527 1527 1526 1526 1526 1526 1526 1527 1528 1529 1534 1539 1543 1550 1553 1550 1553 1549 1549 1551
1523 1524 1525 1526 1527 1528 1528 1529 1529 1529 1529 1529 1529 1528 1528 1527 1527 1527 1527 1526 1526 1525 1524 1524 1524 1525 1528 1530 1528 1528 1528 1528 1528 1528 1529 1530 1532 1538 1543 1546 1550 1549 1553 1555 1554 1552 1553
1521 1521 1523 1524 1526 1526 1527 1528 1528 1529 1529 1529 1528 1528 1528 1527 1527 1527 1527 1526 1529 1529 1525 1530 1531 1530 1530 1531 1530 1530 1529 1529 1529 1530 1535 1533 1539 1544 1544 1545 1547 1552 1554 1553 1551 1551 1552
1519 1520 1521 1522 1524 1525 1526 1527 1528 1528 1528 1528 1528 1528 1528 1527 1527 1527 1527 1526 1527 1530 1531 1532 1532 1531 1531 1530 1531 1531 1531 1531 1531 1537 1537 1541 1543 1547 1546 1547 1549 1550 1552 1555 1552 1552 1554
1516 1517 1519 1520 1522 1523 1525 1524 1526 1526 1527 1527 1528 1528 1528 1527 1527 1527 1526 1527 1527 1528 1530 1534 1533 1533 1533 1533 1533 1532 1532 1532 1534 1538 1542 1542 1550 1547 1547 1550 1550 1553 1554 1555 1557 1556 1554
1513 1514 1516 1518 1519 1521 1523 1524 1523 1525 1525 1526 1527 1527 1527 1527 1529 1527 1527 1527 1527 1527 1535 1539 1536 1536 1536 1535 1535 1534 1534 1536 1537 1541 1544 1548 1548 1547 1549 1550 1554 1553 1558 1557 1557 1563 1562
1508 1511 1513 1516 1516 1518 1520 1522 1523 1523 1524 1525 1526 1527 1526 1526 1526 1526 1528 1527 1527 1527 1543 1542 1538 1538 1537 1537 1540 1537 1536 1535 1539 1542 1545 1545 1549 1548 1548 1552 1553 1553 1556 1556 1558 1563 1568
1503 1506 1509 1512 1514 1515 1517 1519 1521 1522 1522 1523 1525 1525 1525 1526 1526 1526 1526 1526 1527 1533 1545 1539 1539 1539 1539 1539 1540 1538 1538 1538 1542 1544 1547 1552 1552 1553 1556 1557 1556 1557 1558 1562 1567 1570 1584
1496 1500 1504 1507 1509 1512 1514 1516 1518 1520 1521 1522 1523 1525 1525 1525 1525 1525 1525 1527 1534 1535 1539 1539 1540 1540 1541 1544 1542 1542 1542 1543 1545 1548 1546 1553 1555 1555 1555 1556 1558 1558 1559 1564 1560 1571 1554
1489 1494 1499 1503 1505 1507 1510 1512 1514 1516 1518 1520 1522 1524 1524 1524 1525 1525 1526 1528 1530 1531 1534 1540 1540 1541 1542 1546 1544 1544 1544 1546 1547 1548 1556 1557 1550 1558 1559 1559 1559 1561 1562 1565 1561 1565 1560
1482 1487 1491 1496 1499 1501 1504 1507 1509 1513 1514 1518 1521 1522 1523 1523 1524 1525 1528 1534 1530 1531 1533 1538 1541 1539 1544 1546 1547 1544 1546 1549 1548 1549 1559 1567 1551 1562 1562 1562 1563 1565 1566 1566 1574 1582 1586
1476 1479 1484 1489 1493 1495 1498 1502 1505 1507 1511 1516 1518 1521 1522 1522 1524 1525 1528 1529 1531 1531 1533 1534 1532 1538 1538 1544 1545 1546 1545 1550 1550 1551 1551 1560 1567 1565 1562 1562 1564 1564 1568 1568 1572 1574 1565
1466 1470 1476 1481 1487 1491 1494 1497 1501 1503 1506 1513 1517 1519 1520 1522 1523 1526 1530 1533 1531 1533 1533 1534 1535 1537 1541 1543 1547 1547 1548 1551 1549 1549 1549 1555 1562 1562 1562 1561 1557 1567 1571 1574 1576 1579 1577
1459 1463 1469 1473 1480 1485 1489 1492 1495 1498 1503 1506 1513 1518 1518 1520 1525 1528 1530 1528 1531 1532 1533 1533 1534 1537 1540 1545 1546 1549 1547 1548 1550 1550 1554 1556 1569 1570 1554 1562 1561 1560 1566 1570 1575 1573 1589
1451 1455 1462 1467 1474 1479 1482 1487 1491 1495 1499 1503 1509 1513 1517 1518 1525 1529 1528 1528 1530 1532 1532 1533 1535 1536 1539 1542 1552 1548 1548 1550 1549 1549 1552 1555 1567 1574 1554 1566 1564 1564 1565 1568 1571 1580 1574
1449 1453 1458 1462 1468 1472 1476 1478 1487 1490 1493 1499 1506 1512 1516 1517 1519 1519 1525 1529 1530 1532 1532 1533 1537 1538 1541 1543 1547 1550 1548 1550 1550 1550 1551 1552 1570 1555 1542 1540 1557 1563 1557 1557 1554 1567 1551
1447 1451 1454 1459 1463 1467 1472 1477 1482 1486 1491 1496 1500 1504 1504 1517 1517 1518 1519 1523 1527 1530 1532 1534 1536 1535 1540 1548 1546 1547 1548 1550 1551 1552 1553 1556 1564 1565 1559 1558 1553 1541 1544 1551 1547 1530 1539
1444 1447 1452 1456 1460 1463 1468 1470 1477 1484 1488 1494 1495 1499 1504 1511 1511 1518 1520 1523 1525 1529 1529 1534 1536 1534 1539 1542 1540 1547 1549 1553 1548 1553 1555 1557 1564 1569 1566 1552 1549 1539 1541 1537 1530 1525 1525
1440 1444 1447 1452 1456 1458 1461 1465 1472 1479 1484 1486 1493 1494 1498 1511 1514 1516 1515 1516 1518 1522 1526 1527 1531 1534 1540 1539 1540 1542 1543 1544 1545 1548 1552 1557 1566 1570 1558 1564 1561 1538 1516 1515 1521 1522 1516
1438 1442 1445 1449 1451 1453 1458 1463 1468 1474 1480 1485 1489 1496 1499 1507 1512 1511 1511 1513 1517 1520 1522 1526 1530 1532 1536 1537 1539 1540 1541 1543 1546 1549 1551 1556 1560 1561 1566 1566 1554 1510 1519 1515 1513 1516 1513
1435 1441 1443 1446 1447 1449 1454 1462 1467 1472 1477 1482 1488 1493 1493 1505 1507 1511 1510 1512 1516 1519 1524 1528 1532 1534 1534 1536 1539 1546 1547 1547 1553 1552 1550 1551 1553 1560 1564 1585 1528 1512 1516 1518 1515 1510 1509
1435 1439 1440 1441 1443 1446 1451 1457 1466 1471 1474 1480 1485 1489 1491 1496 1504 1504 1508 1512 1515 1520 1526 1529 1531 1534 1537 1537 1539 1543 1542 1540 1549 1556 1553 1552 1551 1546 1562 1559 1545 1511 1511 1512 1514 1516 1504
1435 1436 1438 1437 1440 1442 1447 1458 1464 1467 1473 1478 1482 1487 1491 1495 1500 1503 1506 1508 1512 1516 1522 1527 1530 1535 1536 1537 1539 1546 1541 1550 1539 1546 1555 1556 1555 1541 1540 1536 1521 1505 1507 1511 1523 1503 1502
1431 1432 1434 1436 1440 1444 1449 1457 1462 1467 1472 1476 1482 1487 1490 1492 1498 1499 1502 1505 1508 1513 1514 1526 1532 1533 1536 1536 1538 1539 1550 1543 1546 1544 1543 1539 1542 1548 1545 1539 1528 1501 1510 1508 1501 1501 1502
1427 1430 1434 1437 1443 1450 1452 1454 1461 1467 1472 1476 1482 1485 1487 1491 1496 1500 1501 1505 1506 1506 1510 1518 1518 1515 1518 1528 1533 1533 1536 1541 1539 1527 1533 1529 1516 1520 1514 1504 1499 1500 1501 1501 1501 1501 1502
Wind_Speed
4 5 5 4 4 3 2 3 4 6 7 7 8 9 11 13 15 14 11 8 6 7 6 4 4 3 3 4 6 6 5 4 3 2 3 5 6 4 5 5 4 4 2 7 7 7 11
5 5 6 5 4 3 2 2 3 4 6 6 7 7 8 9 10 9 8 6 4 5 6 5 5 5 3 5 5 6 5 4 3 3 3 4 4 9 10 5 5 5 10 7 4 5 5
6 6 6 7 6 4 3 1 2 3 4 5 6 6 6 5 5 5 5 6 6 5 6 5 4 4 6 5 4 5 4 4 5 6 7 6 8 3 6 5 9 5 4 3 3 2 2
8 6 6 7 7 7 5 3 1 2 3 4 4 5 4 4 2 1 4 5 6 5 6 5 5 4 5 5 4 3 3 3 5 6 8 10 7 10 5 14 4 4 4 1 1 3 1
10 8 7 8 8 8 7 5 3 1 2 3 3 3 4 3 2 2 4 4 6 5 4 5 4 3 4 5 5 6 5 3 4 6 7 6 4 7 5 4 4 6 1 1 5 5 4
12 10 9 9 9 9 8 6 4 3 2 2 2 3 3 3 2 2 4 5 5 5 4 3 5 4 7 6 7 7 5 4 3 5 4 2 5 4 3 3 4 4 2 3 4 1 1
14 12 11 10 10 10 9 8 7 5 3 2 2 2 2 2 2 3 6 3 2 1 15 9 6 4 5 5 6 6 4 5 5 5 3 5 5 1 3 2 3 5 2 3 3 2 3
16 14 13 12 11 11 10 10 8 7 5 3 2 2 1 2 2 4 4 2 4 2 10 9 6 6 7 7 3 6 5 3 4 3 2 5 1 2 3 2 2 1 1 4 3 1 3
17 16 15 13 12 12 12 12 10 8 6 4 4 3 1 1 1 3 4 4 5 5 4 5 8 5 5 6 5 8 7 4 6 3 4 4 1 3 3 2 0 0 3 2 4 4 2
20 18 17 15 14 13 13 13 12 10 8 6 5 4 2 1 1 2 2 3 3 2 4 6 5 5 6 3 4 7 6 4 5 3 3 4 1 2 4 3 2 3 2 1 2 4 3
23 21 19 18 17 15 14 13 13 11 10 8 6 4 3 2 1 1 1 2 2 1 3 4 4 4 6 5 2 6 7 3 3 3 2 1 1 2 2 2 1 3 1 2 2 3 3
28 25 23 22 20 18 17 16 14 13 10 8 7 6 4 3 1 1 2 2 1 4 3 2 2 5 3 6 4 4 3 5 5 3 5 3 2 4 2 2 2 3 1 3 3 2 1
30 29 28 26 23 21 19 19 17 14 11 9 8 6 5 3 3 3 3 1 4 4 1 1 2 3 2 4 3 5 4 4 2 3 3 2 2 1 2 2 3 3 3 4 5 3 5
30 32 31 28 27 26 23 23 20 16 13 10 9 7 6 4 4 5 2 3 1 2 2 1 2 2 2 4 2 4 2 3 2 3 2 2 3 1 4 2 0 1 1 3 5 3 4
33 34 34 32 32 30 29 25 23 18 14 12 10 9 7 5 4 4 2 3 3 3 4 6 2 2 1 1 2 3 1 1 0 1 4 3 1 2 4 3 2 1 1 1 0 1 3
38 39 36 32 27 26 25 25 24 20 16 14 11 7 7 7 6 5 3 3 3 2 5 2 2 1 1 1 2 4 1 0 2 2 2 1 4 1 2 0 3 2 1 2 2 4 6
44 40 40 34 31 28 23 25 24 22 19 16 12 5 4 8 8 3 3 4 2 2 2 2 2 3 2 0 0 1 1 1 1 1 3 4 3 2 1 6 6 3 1 2 2 3 4
40 34 36 39 34 26 24 29 26 24 25 22 10 2 8 13 4 2 3 4 3 3 2 2 3 2 5 5 3 3 3 2 1 1 4 1 4 3 7 3 2 1 6 5 4 5 2
23 28 27 34 28 25 27 24 24 21 25 25 12 6 10 15 3 2 2 2 1 3 3 3 3 1 1 4 1 3 2 1 2 2 5 5 1 3 6 4 5 3 4 4 4 3 7
16 21 26 28 30 32 30 27 28 30 31 24 8 3 3 6 3 5 5 3 3 0 2 3 3 3 3 3 2 3 4 1 1 2 3 3 2 7 9 6 4 4 5 6 6 3 5
24 27 33 28 25 19 22 25 27 26 25 22 7 4 7 3 5 4 5 6 5 4 1 4 1 4 5 3 0 4 1 1 0 2 2 3 5 2 4 4 5 12 9 9 14 20 10
23 24 25 24 24 26 31 30 24 25 30 20 10 7 6 4 10 7 1 6 8 3 6 3 3 1 4 5 6 6 6 4 6 2 2 4 3 2 5 6 7 11 8 16 21 21 18
24 24 24 24 24 25 29 32 31 30 33 13 10 13 7 7 4 4 5 6 8 12 5 3 6 5 2 4 2 0 4 4 4 6 5 3 3 3 6 4 6 10 11 15 5 4 9
22 21 20 21 21 22 26 30 31 32 30 17 16 13 5 2 2 4 6 8 6 7 6 5 7 6 5 7 3 2 4 8 7 5 4 5 4 1 4 5 4 5 2 2 7 4 7
19 19 19 19 18 20 28 30 30 30 33 26 19 15 9 3 4 3 7 6 10 8 4 5 2 4 9 3 2 5 3 4 4 4 1 2 4 2 2 3 9 5 2 4 5 6 4
17 16 16 17 16 18 26 31 32 29 30 28 23 16 6 11 8 2 7 9 4 3 2 3 4 10 6 3 2 4 4 3 3 2 4 1 2 4 3 3 7 5 3 5 4 5 8
16 15 15 14 15 13 24 31 29 29 29 25 19 17 12 4 10 11 4 5 8 5 4 4 6 5 7 2 3 4 4 2 3 6 6 3 2 12 10 6 9 4 7 6 5 5 10
14 13 13 12 16 16 23 26 27 27 23 23 18 17 13 4 11 7 7 8 8 7 4 10 5 2 2 3 3 4 3 4 0 3 6 8 8 4 4 5 11 12 6 8 3 8 10
13 12 13 15 19 19 20 21 22 23 20 22 20 18 11 3 4 8 10 11 10 8 7 18 3 7 12 3 1 2 2 2 3 4 3 3 6 5 10 7 1 14 0 2 4 5 6
Wind_Direction
184 184 186 180 171 153 107 63 52 51 48 49 51 56 69 90 99 102 101 91 72 44 33 15 7 15 17 61 51 26 27 30 48 136 129 118 92 109 96 101 80 67 90 62 88 106 113
198 195 191 190 187 177 152 96 70 53 50 47 51 67 84 104 102 98 86 70 36 18 15 12 20 14 22 78 35 29 45 41 76 111 112 131 101 106 96 66 68 91 99 111 73 96 122
215 210 203 194 193 196 186 153 74 58 52 54 53 60 83 112 123 95 63 23 8 8 4 16 16 14 62 72 46 33 44 65 92 88 97 106 118 127 101 95 113 111 71 107 103 122 104
219 220 218 211 202 194 197 193 160 88 68 58 59 60 74 97 121 49 5 7 5 353 12 11 4 16 79 58 48 25 53 68 93 97 102 96 116 97 71 114 64 62 59 60 156 142 94
221 222 224 223 216 207 201 195 183 154 95 81 74 68 69 84 82 27 359 4 359 359 6 5 22 75 69 53 38 38 45 68 123 111 103 107 118 83 99 82 39 18 246 248 317 196 139
225 224 223 223 221 214 207 205 193 180 146 93 80 80 71 76 73 34 3 336 346 25 358 46 39 77 41 11 27 28 42 54 76 142 123 71 59 76 49 83 231 201 232 257 256 214 187
228 226 226 226 225 217 208 204 198 192 181 155 124 109 80 59 47 15 358 11 24 328 51 56 37 64 27 18 32 26 54 74 74 90 59 33 74 213 239 134 112 122 173 254 240 211 211
231 230 227 226 225 222 211 205 203 198 191 175 158 139 82 39 29 6 14 43 61 102 84 58 56 58 40 19 30 23 29 56 56 71 358 26 78 32 77 81 82 103 280 272 276 159 189
232 230 228 227 226 225 221 205 205 201 194 184 177 171 157 29 7 11 38 64 102 83 81 40 42 34 21 31 49 11 28 44 65 71 23 113 7 1 60 57 33 302 227 281 269 325 244
234 231 228 224 223 223 226 221 202 200 195 192 187 184 189 213 259 353 25 61 112 57 80 345 358 22 10 15 51 31 37 60 42 111 81 89 328 86 70 83 94 296 353 4 353 30 269
231 233 228 226 219 218 220 223 213 201 195 196 198 198 190 197 237 328 31 104 114 55 17 352 4 12 15 63 356 22 32 46 92 118 109 136 106 116 126 162 338 210 41 87 79 105 29
228 227 229 227 224 218 217 212 212 204 199 198 202 196 196 188 201 165 125 107 87 45 267 22 357 1 12 25 23 360 43 59 82 84 45 70 40 31 61 55 36 137 43 64 60 90 358
224 224 228 226 223 223 220 218 207 205 198 197 199 198 201 202 193 150 132 110 36 127 77 59 38 29 88 356 10 29 24 30 59 35 19 85 33 30 88 93 22 42 36 324 342 358 237
237 222 226 228 224 224 224 223 208 201 196 196 198 196 197 194 167 156 144 56 189 145 186 105 97 60 75 348 21 3 54 34 31 79 99 108 330 38 356 51 6 94 89 163 259 259 280
228 221 221 229 233 230 222 223 210 203 191 196 196 195 196 184 174 165 164 63 214 185 134 143 119 105 15 304 297 21 74 157 151 149 145 93 304 21 35 358 25 119 183 163 14 222 11
231 221 221 223 219 222 218 221 217 199 189 197 193 192 190 182 171 161 87 231 179 113 126 143 150 122 204 280 343 14 46 46 80 59 113 195 359 20 301 296 44 132 240 69 23 312 298
233 223 221 214 221 222 227 227 218 207 185 190 180 184 210 175 166 176 160 212 142 120 141 129 178 143 144 123 105 315 314 59 5 121 130 130 112 257 275 199 178 142 234 53 118 167 215
232 232 230 224 211 213 231 227 225 214 207 177 170 159 176 159 98 74 148 178 149 150 131 111 105 134 174 157 162 235 221 169 30 150 136 44 147 232 232 54 23 118 189 152 137 256 210
247 217 221 214 224 223 234 218 223 221 212 174 166 151 172 170 151 204 141 98 129 154 182 133 134 102 97 163 75 204 204 202 203 141 165 193 309 345 317 5 351 205 209 146 118 87 210
218 214 217 220 229 236 231 225 217 222 214 174 173 111 132 181 176 145 138 195 182 192 96 92 112 101 86 163 28 198 231 180 179 153 127 150 117 192 242 242 125 186 187 202 172 193 247
213 224 221 220 222 208 214 211 217 221 203 167 175 159 159 178 224 158 140 151 157 189 164 180 86 199 165 157 56 221 210 60 38 5 66 108 217 213 278 232 214 239 211 191 206 229 228
222 229 227 223 226 224 220 214 217 213 195 180 167 144 134 120 135 110 160 194 186 174 150 228 181 94 159 163 188 211 152 196 214 62 100 5 268 73 285 287 260 274 226 225 234 250 249
225 223 225 228 225 220 217 205 207 205 193 185 183 160 163 144 140 127 194 187 201 160 179 131 169 120 146 236 297 252 179 118 168 154 171 149 133 31 272 317 327 294 243 211 204 206 207
213 215 217 221 221 213 203 201 202 202 205 200 200 178 151 155 170 203 176 176 176 196 140 162 164 147 158 127 86 116 95 83 83 56 67 144 144 207 278 348 300 269 330 123 226 235 242
207 213 213 215 216 209 202 201 201 196 205 191 192 190 162 137 167 171 163 137 126 118 77 124 132 140 145 115 65 355 336 20 9 22 77 111 148 226 239 215 300 306 289 141 163 278 191
203 207 209 208 207 203 204 198 197 193 201 200 199 199 156 132 215 173 142 172 135 134 115 100 124 158 152 90 109 213 233 223 263 341 8 97 55 190 129 221 243 225 226 184 149 286 171
200 199 199 187 185 192 188 191 192 206 202 196 191 201 206 131 155 161 159 166 161 136 100 134 146 168 170 131 175 193 246 174 246 186 171 140 204 216 219 246 278 221 154 144 93 255 162
194 190 188 176 168 153 169 184 194 207 194 195 202 204 193 146 156 176 172 155 153 175 146 149 129 190 109 175 164 215 177 225 67 184 185 169 161 194 180 220 273 153 123 176 159 139 165
185 181 179 175 172 165 168 161 168 184 186 200 210 201 182 164 147 199 204 213 214 196 192 176 230 171 170 109 214 115 214 146 176 261 330 263 196 190 191 214 110 184 59 208 157 161 182